User: anonymous   Login
Location: Caltech
(34.1382°N, 118.1253°W)
Time: 08:03:23
(UTC-08:00)
Language:

Iridium 21 - Orbit

View from above orbital plane
View from above orbital plane
View from above satellite
View from above satellite

Ground track
Ground track

The orbit data is extracted from the following two-line orbital elements,

1 25778U 99032B   15063.43580545  .00000419  00000-0  14250-3 0  9990
2 25778 086.3973 213.2737 0001807 091.3961 292.2232 14.34220245828329
Epoch (UTC): 04 March 2015 10:27:33
Eccentricity: 0.0001807
inclination: 86.3973°
perigee height: 776 km
apogee height: 779 km
right ascension of ascending node: 213.2737°
argument of perigee: 91.3961°
revolutions per day: 14.34220245
mean anomaly at epoch: 292.2232°
orbit number at epoch: 82832

The dashed part of the orbit path shows where the satellite is in the earth's shadow,  

DLR